#timestamp,LO_Frequency,Hit,StdDev 
1571742015.4,286046990.4,N
1571742035.2,286046990.3,N
1571742055.0,286046986.9,N
1571742055.9,286046986.9,N
1571742075.8,286046987.1,N
1571742095.6,286046987.9,N
1571742115.5,286046986.2,N
1571742135.3,286046984.4,N
1571742155.1,286046985.4,N
1571742175.9,286046988.1,N
1571742195.7,286046987.7,N
1571742215.6,286046986.9,N
1571742235.4,286046990.2,N
1571742255.2,286046992.6,N
1571742275.1,286046990.7,N
1571742276.0,286046990.7,N
1571742295.8,286046990.2,N
1571742315.6,286046993.1,N
1571742335.5,286046990.3,N
1571742355.3,286046988.7,N
1571742375.2,286046988.7,N
1571742395.9,286046985.5,N
1571742415.7,286046985.9,N
1571742435.6,286046986.5,Y
1571742455.4,286046995.0,P
1571742475.2,286046996.4,N
1571742495.1,286046993.4,N
1571742496.0,286046993.4,N
1571742515.8,286046994.2,N
1571742535.7,286046992.2,Y
1571742555.5,286046996.9,P
1571742575.3,286046997.3,N
1571742595.2,286046997.7,N
1571742615.0,286046999.5,N
1571742615.9,286046999.5,N
1571742635.8,286047001.0,N
1571742655.6,286047001.1,N
1571742675.4,286047000.3,N
1571742695.3,286047002.3,N
1571742715.1,286047005.3,N
1571742735.8,286047003.7,N
1571742755.7,286047005.6,N
1571742775.5,286047002.5,N
1571742795.4,286046998.1,N
1571742815.2,286046998.8,N
1571742835.0,286046998.7,N
1571742835.9,286046998.7,N
1571742855.8,286047000.8,N
1571742875.6,286046999.4,N
1571742895.4,286046994.9,N
1571742915.3,286046996.3,N
1571742935.1,286046997.3,N
1571742955.9,286046996.1,N
1571742975.7,286046994.7,N
1571742995.5,286046993.5,N
1571743015.4,286046996.2,N
1571743035.2,286046994.6,N
1571743055.1,286046994.1,N
1571743056.0,286046994.1,N
1571743075.8,286046993.9,N
1571743095.6,286046995.5,N
1571743115.5,286046994.4,N
1571743135.3,286046995.2,N
1571743155.1,286046998.5,N
1571743175.9,286047000.8,N
1571743195.7,286046998.8,N
1571743215.6,286046999.5,N
1571743235.4,286046996.9,N
1571743255.2,286047000.2,N
1571743275.1,286046999.7,N
1571743276.0,286046999.7,N
1571743295.8,286047002.2,N
1571743315.6,286047002.1,N
1571743335.5,286047002.0,N
1571743355.3,286047001.5,N
1571743375.2,286046998.8,N
1571743395.9,286046996.8,N
1571743415.7,286046997.5,N
1571743435.6,286046993.7,N
1571743455.4,286046993.4,N
1571743475.2,286046992.1,N
1571743495.1,286046993.0,N
1571743496.0,286046993.0,N
1571743515.8,286046991.2,N
1571743535.7,286046987.1,Y
1571743555.5,286046992.2,P
1571743575.3,286046992.3,P
1571743595.2,286046994.7,N
1571743615.0,286046997.4,N
1571743615.9,286046997.4,N
1571743635.8,286046999.6,N
1571743655.6,286046995.4,N
1571743675.4,286046994.9,N
1571743695.3,286046996.5,N
1571743715.1,286046999.6,N
1571743735.8,286047000.2,N
1571743755.7,286047002.7,N
1571743775.5,286047001.7,N
1571743795.4,286047000.4,N
1571743815.2,286047001.0,N
1571743835.0,286047002.7,N
1571743835.9,286047002.7,N
1571743855.8,286047001.9,N
1571743875.6,286047002.4,N
1571743895.4,286047000.4,N
1571743915.3,286047002.8,N
1571743935.1,286046998.5,N
1571743955.9,286046996.6,N
1571743975.7,286047001.2,N
1571743995.5,286047001.8,N
1571744015.4,286047004.9,N
1571744035.2,286047005.1,N
1571744055.0,286047008.3,N
1571744055.9,286047008.3,N
1571744075.8,286047006.4,N
1571744095.6,286047006.1,N
1571744115.5,286047005.6,N
1571744135.3,286047006.9,N
1571744155.1,286047008.9,N
1571744175.9,286047009.3,N
1571744195.7,286047013.9,Y
1571744215.5,286047012.0,P
1571744235.4,286047008.6,N
1571744255.2,286047006.6,N
1571744275.1,286047003.5,N
1571744276.0,286047003.5,N
1571744295.8,286047000.5,N
1571744315.6,286046995.6,N
1571744335.5,286046994.5,N
1571744355.3,286046992.4,N
1571744375.1,286046990.7,N
1571744395.9,286046988.1,N
1571744415.7,286046987.7,N
1571744435.6,286046985.8,N
1571744455.4,286046985.3,N
1571744475.2,286046989.9,N
1571744495.1,286046990.8,N
1571744496.0,286046990.8,N
1571744515.8,286046989.6,N
1571744535.7,286046992.4,N
1571744555.5,286046993.7,N
1571744575.3,286046996.1,N
1571744595.2,286046995.6,N
1571744615.0,286046997.6,N
1571744615.9,286046997.6,N
1571744635.7,286046993.3,N
1571744655.6,286046993.3,N
1571744675.4,286046997.9,N
1571744695.3,286046993.3,N
1571744715.1,286046994.7,N
1571744735.8,286046993.8,N
1571744755.7,286046998.0,N
1571744775.5,286046996.6,N
1571744795.4,286046999.5,N
1571744815.2,286047001.8,N
1571744835.0,286047007.5,N
1571744835.9,286047007.5,N
1571744855.8,286047007.5,N
1571744875.6,286047008.7,N
1571744895.4,286047008.5,N
1571744915.3,286047004.6,N
1571744935.1,286047003.7,N
1571744955.9,286046998.5,N
1571744975.7,286046998.5,N
1571744995.5,286047002.4,N
1571745015.4,286047001.5,N
1571745035.2,286047002.3,N
1571745055.0,286046998.3,N
1571745055.9,286046998.3,N
1571745075.8,286047000.4,N
1571745095.6,286046999.6,N
1571745115.5,286046997.3,N
1571745135.3,286046995.1,N
1571745155.1,286046994.2,N
1571745175.9,286046994.4,N
1571745195.7,286046994.8,N
1571745215.5,286046991.8,N
1571745235.4,286046990.6,N
1571745255.2,286046992.5,N
1571745275.1,286046994.3,N
1571745276.0,286046994.3,N
1571745295.8,286046994.1,N
1571745315.6,286046994.8,N
1571745335.5,286046993.4,N
1571745355.3,286046996.2,N
1571745375.1,286046997.7,N
1571745395.9,286046995.4,N
1571745415.7,286046994.4,N
1571745435.6,286046992.0,N
1571745455.4,286046996.4,N
1571745475.2,286046993.4,N
1571745495.1,286046998.0,N
1571745496.0,286046998.0,N
1571745515.8,286046995.0,N
1571745535.7,286046995.8,N
1571745555.5,286046993.5,N
1571745575.3,286046992.4,N
1571745595.2,286046994.5,N
